Presure
223 214 224 221 202 199 207 215 233 220 193 207 192 194 186 191 194 182 180 179 190 195 199 193 170 158 185 161 161 161 170 161 163 176 170 200 174 206
212 219 220 207 216 198 196 196 153 213 213 221 225 196 187 151 130 192 194 195 189 188 169 166 167 161 153 148 159 165 160 196 182 170 197 193 179 193
238 218 217 209 211 214 200 163 204 176 169 181 220 221 217 221 196 193 184 187 192 183 173 180 189 152 153 152 159 159 195 180 187 187 190 203 171 197
237 250 228 223 209 213 216 207 198 200 198 199 215 229 228 219 212 218 226 222 189 185 188 182 191 186 146 188 160 163 154 182 171 195 202 177 168 145
232 215 250 229 241 222 217 202 218 214 203 202 161 216 205 213 231 212 207 209 197 194 192 198 190 209 161 153 151 174 202 176 194 197 183 171 197 237
236 230 218 248 227 233 233 229 212 214 224 184 202 181 208 152 184 218 227 200 189 206 197 197 167 152 154 188 201 169 180 178 190 189 171 196 236 241
242 207 236 231 247 237 227 210 256 216 194 212 212 159 152 155 178 162 195 183 193 196 197 162 160 212 146 196 185 191 176 169 169 178 231 240 241 171
246 243 225 236 214 233 239 232 203 237 228 208 206 214 213 150 155 153 162 162 201 198 224 216 216 218 214 164 160 186 166 172 174 236 236 235 242 242
246 247 241 230 235 224 232 237 240 210 236 233 221 213 204 208 213 211 163 158 156 158 161 200 185 157 160 167 164 185 227 230 234 229 238 245 243 216
240 240 247 243 240 233 236 235 236 239 236 199 232 243 219 208 213 218 215 215 215 215 160 159 161 163 197 200 231 231 233 222 229 237 242 244 226 233
243 246 244 251 247 246 237 235 235 236 238 229 228 208 246 240 234 210 221 223 222 224 229 229 223 223 224 225 223 226 229 231 234 235 233 224 231 222
257 261 261 242 243 258 248 248 249 246 236 237 250 244 241 220 250 246 231 213 208 207 218 227 227 228 228 228 226 229 226 234 216 227 224 233 131 155
266 282 275 257 258 255 286 285 265 253 262 266 249 247 258 250 242 253 252 246 241 222 214 213 215 215 220 213 216 217 217 219 227 233 231 157 252 200
267 266 283 279 288 284 278 316 295 320 317 302 318 293 280 253 271 242 257 258 250 240 238 232 225 221 221 219 226 224 226 229 231 234 241 256 288 320
261 263 273 280 269 273 281 273 282 263 282 305 304 299 298 292 291 271 247 242 261 256 255 256 240 237 237 233 236 235 234 240 246 257 264 306 302 312
262 275 265 267 264 267 268 263 272 291 293 281 283 291 296 300 298 292 279 268 266 264 251 255 268 269 265 264 263 262 264 269 292 325 319 294 248 303
248 260 267 274 290 282 266 265 272 282 296 296 288 274 274 278 287 289 287 293 279 286 267 251 245 259 277 284 286 286 301 296 301 299 311 312 300 288
264 272 271 271 262 257 270 289 294 296 290 267 294 300 305 294 279 275 272 274 274 274 272 274 280 254 257 281 289 299 297 294 286 261 291 145 280 280
288 299 292 290 253 260 293 291 284 280 289 295 288 296 299 298 295 291 293 297 293 294 295 289 287 275 279 302 280 283 282 256 286 281 278 274 269 272
272 260 275 262 245 254 252 259 275 287 279 279 282 285 297 297 294 296 310 309 302 301 297 292 291 293 290 184 282 283 284 281 277 280 273 273 265 275
245 246 267 276 270 258 263 261 272 280 271 300 304 295 299 302 304 303 296 294 294 293 289 222 286 289 280 275 278 280 275 279 279 278 269 272 273 279
275 272 265 259 256 259 261 270 271 302 285 288 291 296 287 292 288 287 290 285 286 284 285 287 284 275 273 273 272 278 277 273 271 269 286 266 277 285
257 265 253 259 268 262 269 269 279 273 274 278 304 287 285 278 289 280 284 276 282 280 275 277 274 269 271 273 273 266 271 272 272 280 267 262 284 281
Wind_Speed
102 98 95 98 101 102 93 93 91 90 94 100 95 95 88 88 84 76 76 75 77 77 77 76 68 63 73 63 61 58 64 60 63 67 62 76 62 79
97 105 101 98 101 103 97 97 82 96 94 95 97 94 88 72 63 83 84 83 82 81 76 72 71 66 60 59 63 64 59 78 69 64 77 75 67 75
101 107 108 103 104 107 106 89 100 90 86 84 100 100 100 95 91 89 85 85 87 82 79 80 82 63 62 62 66 64 80 73 73 73 73 82 66 79
102 105 114 113 108 109 110 110 104 105 101 103 103 103 99 97 92 88 86 89 88 86 87 82 85 83 64 82 66 68 66 76 66 81 83 69 68 59
106 103 107 113 112 112 113 108 113 114 111 107 82 107 98 96 96 93 95 95 93 91 88 92 88 93 70 64 67 76 90 74 83 83 75 72 86 103
110 109 105 110 114 112 112 116 110 109 112 98 109 91 108 79 90 97 97 96 88 94 89 90 76 68 69 87 92 76 78 79 82 82 75 86 106 107
114 110 111 110 110 112 114 109 107 112 109 112 112 86 79 83 93 82 92 84 94 97 97 76 75 93 72 92 84 90 81 75 75 79 107 107 107 73
114 116 108 113 108 109 111 114 110 117 118 115 113 115 115 82 85 81 78 78 94 91 98 96 98 98 100 76 75 88 77 79 81 107 107 105 106 105
110 113 116 113 115 109 110 114 115 112 111 118 117 115 113 114 116 112 85 80 78 80 78 95 91 80 80 81 80 88 107 109 107 105 108 110 106 89
114 114 114 115 117 116 115 114 114 114 114 110 112 116 117 116 116 118 114 112 109 108 85 82 84 84 97 97 110 109 109 102 106 110 109 108 94 100
111 112 113 113 116 117 114 113 114 114 115 112 113 113 114 117 120 112 116 116 113 112 114 112 111 110 109 108 108 108 108 108 108 105 100 92 102 100
107 106 107 111 110 112 114 116 117 121 116 115 112 113 112 114 112 118 119 110 102 101 109 110 110 111 111 110 110 110 104 109 89 97 96 105 56 79
102 103 101 101 100 103 95 98 109 112 112 113 111 109 111 111 111 109 111 116 118 110 105 101 102 100 101 93 99 98 95 94 100 106 106 67 115 92
91 91 83 84 83 82 85 77 77 71 76 93 82 98 104 107 106 111 106 107 113 116 115 114 110 107 105 101 107 106 104 105 105 106 112 116 103 76
88 87 82 77 80 80 74 77 72 83 75 72 80 85 87 93 96 101 108 110 104 107 109 111 116 113 114 113 115 116 111 115 116 117 115 90 71 70
89 85 83 78 77 76 74 71 69 75 75 74 77 77 80 83 86 90 93 96 98 102 108 107 104 105 108 111 114 116 117 118 101 73 70 69 69 62
82 89 83 80 73 71 73 75 75 70 69 72 77 80 80 80 81 82 85 84 88 88 98 104 105 101 96 96 95 95 83 87 81 80 62 60 63 63
80 93 83 71 67 65 63 62 61 63 66 72 69 69 71 77 81 82 82 83 84 86 89 88 87 100 97 85 82 76 77 76 78 79 67 70 65 64
79 75 81 79 58 59 61 56 58 61 60 60 66 65 66 68 70 72 71 71 74 73 74 78 78 84 80 70 78 78 78 71 71 69 69 69 70 69
74 61 63 61 59 58 58 57 57 57 64 67 65 64 63 64 66 66 63 63 65 66 67 70 70 68 69 73 71 73 71 69 71 70 69 70 71 73
56 56 64 63 60 56 59 60 60 61 66 59 54 56 56 56 56 57 58 60 60 61 64 69 66 64 67 69 70 68 70 69 69 71 69 69 72 76
73 67 59 56 60 60 59 59 61 58 59 58 54 54 58 54 54 56 58 60 60 61 62 60 61 66 69 68 69 67 66 68 70 70 74 69 71 72
61 61 59 60 60 62 60 59 60 66 63 59 52 57 56 57 55 55 55 60 59 58 62 62 64 68 68 68 66 68 68 67 70 70 69 70 66 65
Wind_Direction
239 241 236 233 240 245 245 242 244 242 247 245 248 248 251 252 253 253 255 258 260 261 263 263 266 270 267 274 277 279 279 283 284 284 287 288 287 293
239 240 237 237 233 243 244 245 243 244 246 248 248 250 252 256 260 256 257 258 258 258 261 265 267 269 273 275 278 279 278 281 281 282 286 288 288 291
236 238 239 239 237 236 243 244 246 245 247 247 251 251 250 252 253 255 256 258 258 259 262 263 264 270 273 275 277 278 279 281 283 284 286 290 283 293
236 236 236 238 239 238 238 242 245 248 249 250 253 257 254 252 250 254 255 256 258 259 261 264 266 267 269 270 276 278 277 280 283 284 288 284 280 282
240 237 237 236 235 238 239 241 241 242 247 251 246 256 254 255 258 250 253 255 257 259 262 264 266 268 268 272 273 276 278 280 283 285 285 282 288 295
238 239 238 237 237 238 238 238 240 242 243 246 253 249 257 248 253 256 258 255 257 259 261 262 264 267 271 272 275 275 279 280 283 284 282 287 294 295
235 237 239 239 239 239 240 241 240 241 245 245 246 249 248 248 255 250 256 255 256 258 260 263 266 268 267 273 275 277 277 279 280 282 290 291 293 283
235 235 239 239 238 240 240 240 239 240 240 244 246 246 249 251 253 256 255 256 262 264 265 263 264 268 269 269 273 276 278 279 280 287 288 291 294 296
237 236 236 238 239 240 241 241 241 240 241 242 244 246 250 252 254 258 258 258 259 261 261 266 267 265 268 271 272 276 281 283 284 287 290 292 294 293
235 235 237 237 238 240 242 242 243 243 243 243 246 245 248 251 253 255 257 260 262 264 263 262 264 265 272 274 278 279 280 284 286 288 290 292 294 298
234 235 236 238 238 240 243 244 245 245 246 247 245 247 247 248 249 255 255 257 259 262 265 266 268 270 273 275 277 279 281 283 285 288 291 294 295 296
238 239 239 238 238 241 242 244 246 247 245 246 249 248 248 249 250 250 252 258 261 264 264 264 265 268 270 272 275 277 280 282 287 289 292 293 286 280
240 242 244 245 245 245 247 247 247 248 250 252 250 249 252 250 249 252 252 253 255 261 265 268 269 271 271 274 276 279 282 284 286 288 290 287 293 291
238 241 240 242 246 247 249 248 246 251 252 254 253 252 253 252 255 251 255 255 255 257 259 262 265 269 272 275 276 278 281 283 285 287 289 291 292 286
240 243 244 243 245 247 247 247 250 246 253 254 253 254 254 254 254 255 254 255 257 257 259 261 264 266 269 272 274 277 279 281 283 286 288 289 284 281
240 242 243 243 245 248 252 248 253 255 253 250 251 254 255 256 257 256 257 257 258 259 260 263 266 267 269 270 273 276 279 281 285 288 285 283 284 282
245 246 246 247 249 248 248 252 253 252 254 255 253 251 253 254 256 256 257 259 260 262 262 264 267 270 272 273 276 277 280 282 285 286 286 280 280 280
242 245 247 246 244 247 250 253 253 253 251 251 254 255 255 257 257 258 259 260 261 263 264 267 269 269 271 274 275 275 277 279 282 284 286 293 283 284
241 244 247 249 242 250 255 250 251 250 251 249 250 253 254 255 257 259 261 262 263 264 265 267 267 270 272 270 273 274 276 277 278 279 281 282 285 287
240 242 249 243 238 245 245 248 256 257 250 250 251 252 253 253 255 257 258 258 259 260 262 263 265 266 267 275 269 271 273 274 276 277 279 281 284 284
228 229 247 252 248 245 250 251 257 262 253 257 255 254 255 256 258 258 257 257 257 258 259 267 263 263 265 268 269 271 272 274 275 276 278 281 284 286
247 249 245 239 240 242 248 254 260 255 255 257 256 250 253 253 253 254 254 256 256 258 258 258 258 262 264 267 269 272 272 272 274 278 277 280 282 285
237 248 237 245 253 248 252 253 259 252 253 254 256 250 250 252 253 253 253 255 256 257 258 259 260 263 266 268 270 272 274 275 275 275 276 279 282 285